Time,TemperatureF,DewpointF,PressureIn,WindDirection,WindDirectionDegrees,WindSpeedMPH,WindSpeedGustMPH,Humidity,HourlyPrecipIn,Conditions,Clouds,dailyrainin,SolarRadiationWatts/m^2,SoftwareType,DateUTC
2013-04-06 00:00:00,39.5,27.9,29.85,North,0,0.0,0.0,63,0.00,CLR,,0.00,0.0,WeatherDisplay:10.37,2013-04-06 04:00:00,
2013-04-06 00:05:00,39.3,28.1,29.85,North,0,0.0,0.0,64,0.00,CLR,,0.00,0.0,WeatherDisplay:10.37,2013-04-06 04:05:00,
2013-04-06 00:10:00,39.1,27.9,29.86,North,0,0.0,0.0,64,0.00,CLR,,0.00,0.0,WeatherDisplay:10.37,2013-04-06 04:10:00,
2013-04-06 00:15:00,39.0,28.2,29.86,North,0,0.0,0.0,65,0.00,CLR,,0.00,0.0,WeatherDisplay:10.37,2013-04-06 04:15:00,
2013-04-06 00:20:00,38.7,27.9,29.86,North,0,0.0,0.0,65,0.00,CLR,,0.00,0.0,WeatherDisplay:10.37,2013-04-06 04:20:00,
2013-04-06 00:25:00,38.5,27.7,29.86,North,0,0.0,0.0,65,0.00,CLR,,0.00,0.0,WeatherDisplay:10.37,2013-04-06 04:25:00,
2013-04-06 00:30:00,38.3,27.9,29.86,North,0,0.0,0.0,66,0.00,CLR,,0.00,0.0,WeatherDisplay:10.37,2013-04-06 04:30:00,
2013-04-06 00:36:00,38.2,27.5,29.86,North,0,0.0,0.0,65,0.00,CLR,,0.00,0.0,WeatherDisplay:10.37,2013-04-06 04:36:00,
2013-04-06 00:41:00,38.1,27.4,29.86,North,0,0.0,0.0,65,0.00,CLR,,0.00,0.0,WeatherDisplay:10.37,2013-04-06 04:41:00,
2013-04-06 00:46:00,37.8,27.1,29.86,North,0,0.0,0.0,65,0.00,CLR,,0.00,0.0,WeatherDisplay:10.37,2013-04-06 04:46:00,
2013-04-06 00:51:00,37.7,27.0,29.86,North,0,0.0,0.0,65,0.00,CLR,,0.00,0.0,WeatherDisplay:10.37,2013-04-06 04:51:00,
2013-04-06 00:56:00,37.6,26.9,29.86,North,0,0.0,0.0,65,0.00,CLR,,0.00,0.0,WeatherDisplay:10.37,2013-04-06 04:56:00,
2013-04-06 01:01:00,37.5,27.2,29.87,North,0,0.0,0.0,66,0.00,CLR,,0.00,0.0,WeatherDisplay:10.37,2013-04-06 05:01:00,
2013-04-06 01:06:00,37.3,27.0,29.87,North,0,0.0,0.0,66,0.00,CLR,,0.00,0.0,WeatherDisplay:10.37,2013-04-06 05:06:00,
2013-04-06 01:11:00,37.2,26.9,29.87,North,0,0.0,0.0,66,0.00,CLR,,0.00,0.0,WeatherDisplay:10.37,2013-04-06 05:11:00,
2013-04-06 01:16:00,37.1,26.8,29.87,North,0,0.0,0.0,66,0.00,CLR,,0.00,0.0,WeatherDisplay:10.37,2013-04-06 05:16:00,
2013-04-06 01:21:00,36.9,26.6,29.88,North,0,0.0,0.0,66,0.00,CLR,,0.00,0.0,WeatherDisplay:10.37,2013-04-06 05:21:00,
2013-04-06 01:26:00,36.8,26.5,29.88,North,0,0.0,0.0,66,0.00,CLR,,0.00,0.0,WeatherDisplay:10.37,2013-04-06 05:26:00,
2013-04-06 01:31:00,36.7,26.4,29.88,North,0,0.0,0.0,66,0.00,CLR,,0.00,0.0,WeatherDisplay:10.37,2013-04-06 05:31:00,
2013-04-06 01:36:00,36.5,26.2,29.88,North,0,0.0,0.0,66,0.00,CLR,,0.00,0.0,WeatherDisplay:10.37,2013-04-06 05:36:00,
2013-04-06 01:41:00,36.3,26.4,29.88,North,0,0.0,0.0,67,0.00,CLR,,0.00,0.0,WeatherDisplay:10.37,2013-04-06 05:41:00,
2013-04-06 01:46:00,36.2,26.3,29.89,North,0,0.0,0.0,67,0.00,CLR,,0.00,0.0,WeatherDisplay:10.37,2013-04-06 05:46:00,
2013-04-06 01:51:00,35.9,26.4,29.89,North,0,0.0,0.0,68,0.00,CLR,,0.00,0.0,WeatherDisplay:10.37,2013-04-06 05:51:00,
2013-04-06 01:57:00,35.8,26.3,29.89,North,0,0.0,0.0,68,0.00,CLR,,0.00,0.0,WeatherDisplay:10.37,2013-04-06 05:57:00,
2013-04-06 02:02:00,35.6,26.1,29.89,North,0,0.0,0.0,68,0.00,CLR,,0.00,0.0,WeatherDisplay:10.37,2013-04-06 06:02:00,
2013-04-06 02:07:00,35.4,25.9,29.89,North,0,0.0,0.0,68,0.00,CLR,,0.00,0.0,WeatherDisplay:10.37,2013-04-06 06:07:00,
2013-04-06 02:12:00,35.4,26.2,29.89,North,0,0.0,0.0,69,0.00,CLR,,0.00,0.0,WeatherDisplay:10.37,2013-04-06 06:12:00,
2013-04-06 02:17:00,35.2,26.0,29.90,North,0,0.0,0.0,69,0.00,CLR,,0.00,0.0,WeatherDisplay:10.37,2013-04-06 06:17:00,
2013-04-06 02:22:00,35.1,25.9,29.90,North,0,0.0,0.0,69,0.00,CLR,,0.00,0.0,WeatherDisplay:10.37,2013-04-06 06:22:00,
2013-04-06 02:27:00,35.0,26.2,29.90,North,0,0.0,0.0,70,0.00,CLR,,0.00,0.0,WeatherDisplay:10.37,2013-04-06 06:27:00,
2013-04-06 02:32:00,34.7,25.6,29.90,North,0,0.0,0.0,69,0.00,CLR,,0.00,0.0,WeatherDisplay:10.37,2013-04-06 06:32:00,
2013-04-06 02:37:00,34.6,25.5,29.91,North,0,0.0,0.0,69,0.00,CLR,,0.00,0.0,WeatherDisplay:10.37,2013-04-06 06:37:00,
2013-04-06 02:42:00,34.5,25.4,29.91,North,0,0.0,0.0,69,0.00,CLR,,0.00,0.0,WeatherDisplay:10.37,2013-04-06 06:42:00,
2013-04-06 02:47:00,34.4,24.9,29.91,North,0,0.0,0.0,68,0.00,CLR,,0.00,0.0,WeatherDisplay:10.37,2013-04-06 06:47:00,
2013-04-06 02:52:00,34.4,24.9,29.91,North,0,0.0,0.0,68,0.00,CLR,,0.00,0.0,WeatherDisplay:10.37,2013-04-06 06:52:00,
2013-04-06 02:57:00,34.4,24.9,29.91,North,0,0.0,0.0,68,0.00,CLR,,0.00,0.0,WeatherDisplay:10.37,2013-04-06 06:57:00,
2013-04-06 03:02:00,34.4,24.9,29.91,North,0,0.0,0.0,68,0.00,CLR,,0.00,0.0,WeatherDisplay:10.37,2013-04-06 07:02:00,
2013-04-06 03:07:00,34.3,24.5,29.92,North,0,0.0,0.0,67,0.00,CLR,,0.00,0.0,WeatherDisplay:10.37,2013-04-06 07:07:00,
2013-04-06 03:12:00,34.2,24.4,29.92,North,0,0.0,0.0,67,0.00,CLR,,0.00,0.0,WeatherDisplay:10.37,2013-04-06 07:12:00,
2013-04-06 03:17:00,34.2,24.4,29.93,North,0,0.0,0.0,67,0.00,CLR,,0.00,0.0,WeatherDisplay:10.37,2013-04-06 07:17:00,
2013-04-06 03:22:00,34.1,24.3,29.93,North,0,0.0,0.0,67,0.00,CLR,,0.00,0.0,WeatherDisplay:10.37,2013-04-06 07:22:00,
2013-04-06 03:27:00,34.0,23.5,29.93,North,0,0.0,0.0,65,0.00,CLR,,0.00,0.0,WeatherDisplay:10.37,2013-04-06 07:27:00,
2013-04-06 03:32:00,33.9,23.0,29.93,North,0,0.0,0.0,64,0.00,CLR,,0.00,0.0,WeatherDisplay:10.37,2013-04-06 07:32:00,
2013-04-06 03:37:00,33.9,22.6,29.94,North,0,0.0,0.0,63,0.00,CLR,,0.00,0.0,WeatherDisplay:10.37,2013-04-06 07:37:00,
2013-04-06 03:42:00,33.9,22.2,29.94,North,0,0.0,0.0,62,0.00,CLR,,0.00,0.0,WeatherDisplay:10.37,2013-04-06 07:42:00,
2013-04-06 03:47:00,33.8,21.8,29.94,North,0,0.0,0.0,61,0.00,CLR,,0.00,0.0,WeatherDisplay:10.37,2013-04-06 07:47:00,
2013-04-06 03:52:00,33.8,21.8,29.95,North,0,0.0,0.0,61,0.00,CLR,,0.00,0.0,WeatherDisplay:10.37,2013-04-06 07:52:00,
2013-04-06 03:57:00,33.7,21.3,29.95,North,0,0.0,0.0,60,0.00,CLR,,0.00,0.0,WeatherDisplay:10.37,2013-04-06 07:57:00,
2013-04-06 04:02:00,33.6,22.7,29.95,North,0,0.0,0.0,64,0.00,CLR,,0.00,0.0,WeatherDisplay:10.37,2013-04-06 08:02:00,
2013-04-06 04:07:00,33.5,21.5,29.96,North,0,0.0,0.0,61,0.00,CLR,,0.00,0.0,WeatherDisplay:10.37,2013-04-06 08:07:00,
2013-04-06 04:12:00,33.4,21.4,29.96,North,0,0.0,0.0,61,0.00,CLR,,0.00,0.0,WeatherDisplay:10.37,2013-04-06 08:12:00,
2013-04-06 04:17:00,33.3,21.7,29.97,North,0,0.0,0.0,62,0.00,CLR,,0.00,0.0,WeatherDisplay:10.37,2013-04-06 08:17:00,
2013-04-06 04:22:00,33.2,21.6,29.97,North,0,0.0,0.0,62,0.00,CLR,,0.00,0.0,WeatherDisplay:10.37,2013-04-06 08:22:00,
2013-04-06 04:27:00,33.2,22.0,29.97,North,0,0.0,0.0,63,0.00,CLR,,0.00,0.0,WeatherDisplay:10.37,2013-04-06 08:27:00,
2013-04-06 04:32:00,33.0,21.4,29.98,North,0,0.0,0.0,62,0.00,CLR,,0.00,0.0,WeatherDisplay:10.37,2013-04-06 08:32:00,
2013-04-06 04:37:00,33.0,21.0,29.98,North,0,0.0,0.0,61,0.00,CLR,,0.00,0.0,WeatherDisplay:10.37,2013-04-06 08:37:00,
2013-04-06 04:42:00,32.9,20.9,29.98,North,0,0.0,0.0,61,0.00,CLR,,0.00,0.0,WeatherDisplay:10.37,2013-04-06 08:42:00,
2013-04-06 04:48:00,32.8,20.4,29.98,North,0,0.0,0.0,60,0.00,CLR,,0.00,0.0,WeatherDisplay:10.37,2013-04-06 08:48:00,
2013-04-06 04:53:00,32.8,20.4,29.99,North,0,0.0,0.0,60,0.00,CLR,,0.00,0.0,WeatherDisplay:10.37,2013-04-06 08:53:00,
2013-04-06 04:58:00,32.7,19.9,29.99,North,0,0.0,0.0,59,0.00,CLR,,0.00,0.0,WeatherDisplay:10.37,2013-04-06 08:58:00,
2013-04-06 05:03:00,32.6,20.2,29.99,North,0,0.0,0.0,60,0.00,CLR,,0.00,0.0,WeatherDisplay:10.37,2013-04-06 09:03:00,
2013-04-06 05:08:00,32.4,20.0,30.00,North,0,0.0,0.0,60,0.00,CLR,,0.00,0.0,WeatherDisplay:10.37,2013-04-06 09:08:00,
2013-04-06 05:13:00,32.3,20.0,30.00,North,0,0.0,0.0,60,0.00,CLR,,0.00,0.0,WeatherDisplay:10.37,2013-04-06 09:13:00,
2013-04-06 05:18:00,32.1,19.8,30.01,North,0,0.0,0.0,60,0.00,CLR,,0.00,0.0,WeatherDisplay:10.37,2013-04-06 09:18:00,
2013-04-06 05:23:00,31.9,19.2,30.00,North,0,0.0,0.0,59,0.00,CLR,,0.00,0.0,WeatherDisplay:10.37,2013-04-06 09:23:00,
2013-04-06 05:28:00,31.7,19.0,30.01,North,0,0.0,0.0,59,0.00,CLR,,0.00,0.0,WeatherDisplay:10.37,2013-04-06 09:28:00,
2013-04-06 05:33:00,31.5,18.8,30.01,North,0,0.0,0.0,59,0.00,CLR,,0.00,0.0,WeatherDisplay:10.37,2013-04-06 09:33:00,
2013-04-06 05:38:00,31.4,17.9,30.02,North,0,0.0,0.0,57,0.00,CLR,,0.00,0.0,WeatherDisplay:10.37,2013-04-06 09:38:00,
2013-04-06 05:43:00,31.3,17.8,30.02,North,0,0.0,0.0,57,0.00,CLR,,0.00,0.0,WeatherDisplay:10.37,2013-04-06 09:43:00,
2013-04-06 05:48:00,31.3,17.8,30.02,North,0,0.0,0.0,57,0.00,CLR,,0.00,0.0,WeatherDisplay:10.37,2013-04-06 09:48:00,
2013-04-06 05:53:00,31.2,17.3,30.03,North,0,0.0,0.0,56,0.00,CLR,,0.00,0.0,WeatherDisplay:10.37,2013-04-06 09:53:00,
2013-04-06 05:58:00,31.1,16.8,30.03,North,0,0.0,0.0,55,0.00,CLR,,0.00,0.0,WeatherDisplay:10.37,2013-04-06 09:58:00,
2013-04-06 06:03:00,31.1,16.4,30.04,North,0,0.0,0.0,54,0.00,OVC,,0.00,0.0,WeatherDisplay:10.37,2013-04-06 10:03:00,
2013-04-06 06:08:00,31.0,16.3,30.03,North,0,0.0,0.0,54,0.00,OVC,,0.00,0.0,WeatherDisplay:10.37,2013-04-06 10:08:00,
2013-04-06 06:13:00,31.0,15.8,30.04,North,0,0.0,0.0,53,0.00,OVC,,0.00,0.0,WeatherDisplay:10.37,2013-04-06 10:13:00,
2013-04-06 06:18:00,31.0,15.0,30.04,North,0,0.0,0.0,51,0.00,OVC,,0.00,0.0,WeatherDisplay:10.37,2013-04-06 10:18:00,
2013-04-06 06:23:00,31.0,15.0,30.05,North,0,0.0,0.0,51,0.00,OVC,,0.00,0.0,WeatherDisplay:10.37,2013-04-06 10:23:00,
2013-04-06 06:28:00,31.0,15.0,30.05,North,0,0.0,0.0,51,0.00,CLR,,0.00,5.0,WeatherDisplay:10.37,2013-04-06 10:28:00,
2013-04-06 06:33:00,31.0,15.4,30.05,North,0,0.0,0.0,52,0.00,SCT,,0.00,7.0,WeatherDisplay:10.37,2013-04-06 10:33:00,
2013-04-06 06:38:00,31.1,15.1,30.06,North,0,0.0,0.0,51,0.00,BKN,,0.00,9.0,WeatherDisplay:10.37,2013-04-06 10:38:00,
2013-04-06 06:43:00,31.1,15.5,30.06,North,0,0.0,0.0,52,0.00,BKN,,0.00,12.0,WeatherDisplay:10.37,2013-04-06 10:43:00,
2013-04-06 06:48:00,31.1,15.9,30.07,North,0,0.0,0.0,53,0.00,BKN,,0.00,23.0,WeatherDisplay:10.37,2013-04-06 10:48:00,
2013-04-06 06:53:00,31.1,15.9,30.07,North,0,0.0,0.0,53,0.00,BKN,,0.00,23.0,WeatherDisplay:10.37,2013-04-06 10:53:00,
2013-04-06 06:58:00,31.2,16.0,30.08,North,0,0.0,0.0,53,0.00,BKN,,0.00,23.0,WeatherDisplay:10.37,2013-04-06 10:58:00,
2013-04-06 07:03:00,31.2,17.3,30.08,North,0,0.0,0.0,56,0.00,BKN,,0.00,26.0,WeatherDisplay:10.37,2013-04-06 11:03:00,
2013-04-06 07:08:00,31.3,18.2,30.09,North,0,0.0,0.0,58,0.00,BKN,,0.00,25.0,WeatherDisplay:10.37,2013-04-06 11:08:00,
2013-04-06 07:13:00,31.3,18.2,30.09,North,0,0.0,0.0,58,0.00,BKN,,0.00,28.0,WeatherDisplay:10.37,2013-04-06 11:13:00,
2013-04-06 07:18:00,31.3,18.2,30.09,North,0,0.0,0.0,58,0.00,BKN,,0.00,30.0,WeatherDisplay:10.37,2013-04-06 11:18:00,
2013-04-06 07:23:00,31.4,18.3,30.09,North,0,0.0,0.0,58,0.00,BKN,,0.00,40.0,WeatherDisplay:10.37,2013-04-06 11:23:00,
2013-04-06 07:28:00,31.4,18.3,30.09,North,0,0.0,0.0,58,0.00,BKN,,0.00,37.0,WeatherDisplay:10.37,2013-04-06 11:28:00,
2013-04-06 07:33:00,31.5,18.0,30.10,North,0,0.0,0.0,57,0.00,BKN,,0.00,35.0,WeatherDisplay:10.37,2013-04-06 11:33:00,
2013-04-06 07:38:00,31.5,17.6,30.10,North,0,0.0,0.0,56,0.00,BKN,,0.00,53.0,WeatherDisplay:10.37,2013-04-06 11:38:00,
2013-04-06 07:43:00,31.5,17.2,30.11,North,0,0.0,0.0,55,0.00,BKN,,0.00,40.0,WeatherDisplay:10.37,2013-04-06 11:43:00,
2013-04-06 07:48:00,31.6,17.3,30.11,North,0,0.0,0.0,55,0.00,BKN,,0.00,70.0,WeatherDisplay:10.37,2013-04-06 11:48:00,
2013-04-06 07:53:00,31.7,16.9,30.11,North,0,0.0,0.0,54,0.00,BKN,,0.00,56.0,WeatherDisplay:10.37,2013-04-06 11:53:00,
2013-04-06 07:58:00,31.7,16.1,30.11,North,0,0.0,0.0,52,0.00,BKN,,0.00,97.0,WeatherDisplay:10.37,2013-04-06 11:58:00,
2013-04-06 08:03:00,31.7,16.1,30.12,North,0,0.0,0.0,52,0.00,BKN,,0.00,109.0,WeatherDisplay:10.37,2013-04-06 12:03:00,
2013-04-06 08:08:00,31.8,15.7,30.12,North,0,0.0,0.0,51,0.00,BKN,,0.00,132.0,WeatherDisplay:10.37,2013-04-06 12:08:00,
2013-04-06 08:13:00,31.9,14.9,30.12,North,0,0.0,0.0,49,0.00,BKN,,0.00,125.0,WeatherDisplay:10.37,2013-04-06 12:13:00,
2013-04-06 08:18:00,32.0,14.5,30.12,North,0,0.0,0.0,48,0.00,BKN,,0.00,81.0,WeatherDisplay:10.37,2013-04-06 12:18:00,
2013-04-06 08:23:00,32.1,14.1,30.13,North,0,0.0,0.0,47,0.00,BKN,,0.00,165.0,WeatherDisplay:10.37,2013-04-06 12:23:00,
2013-04-06 08:28:00,32.3,14.3,30.13,North,0,0.0,0.0,47,0.00,SCT,,0.00,229.0,WeatherDisplay:10.37,2013-04-06 12:28:00,
2013-04-06 08:33:00,32.4,14.4,30.13,North,0,0.0,0.0,47,0.00,BKN,,0.00,123.0,WeatherDisplay:10.37,2013-04-06 12:33:00,
2013-04-06 08:38:00,32.4,12.9,30.13,North,0,0.0,0.0,44,0.00,BKN,,0.00,146.0,WeatherDisplay:10.37,2013-04-06 12:38:00,
2013-04-06 08:43:00,32.5,13.5,30.14,North,0,0.0,0.0,45,0.00,BKN,,0.00,156.0,WeatherDisplay:10.37,2013-04-06 12:43:00,
2013-04-06 08:48:00,32.7,14.2,30.14,North,0,0.0,0.0,46,0.00,SCT,,0.00,315.0,WeatherDisplay:10.37,2013-04-06 12:48:00,
2013-04-06 08:53:00,33.0,13.9,30.14,North,0,0.0,0.0,45,0.00,FEW,,0.00,253.0,WeatherDisplay:10.37,2013-04-06 12:53:00,
2013-04-06 08:59:00,33.2,13.6,30.14,North,0,0.0,0.0,44,0.00,SCT,,0.00,230.0,WeatherDisplay:10.37,2013-04-06 12:59:00,
2013-04-06 09:04:00,33.4,13.8,30.15,North,0,0.0,0.0,44,0.00,SCT,,0.00,239.0,WeatherDisplay:10.37,2013-04-06 13:04:00,
2013-04-06 09:09:00,33.5,14.4,30.15,North,0,0.0,0.0,45,0.00,SCT,,0.00,327.0,WeatherDisplay:10.37,2013-04-06 13:09:00,
2013-04-06 09:14:00,33.8,14.7,30.14,North,0,0.0,0.0,45,0.00,SCT,,0.00,353.0,WeatherDisplay:10.37,2013-04-06 13:14:00,
2013-04-06 09:19:00,34.1,14.4,30.14,North,0,0.0,0.0,44,0.00,FEW,,0.00,373.0,WeatherDisplay:10.37,2013-04-06 13:19:00,
2013-04-06 09:24:00,34.4,14.7,30.14,North,0,0.0,0.0,44,0.00,FEW,,0.00,360.0,WeatherDisplay:10.37,2013-04-06 13:24:00,
2013-04-06 09:29:00,34.5,14.3,30.15,North,0,0.0,0.0,43,0.00,FEW,,0.00,517.0,WeatherDisplay:10.37,2013-04-06 13:29:00,
2013-04-06 09:34:00,34.7,14.5,30.15,North,0,0.0,0.0,43,0.00,CLR,,0.00,533.0,WeatherDisplay:10.37,2013-04-06 13:34:00,
2013-04-06 09:39:00,35.2,14.9,30.16,North,0,0.0,0.0,43,0.00,CLR,,0.00,548.0,WeatherDisplay:10.37,2013-04-06 13:39:00,
2013-04-06 09:44:00,35.4,14.6,30.16,North,0,0.0,0.0,42,0.00,CLR,,0.00,561.0,WeatherDisplay:10.37,2013-04-06 13:44:00,
2013-04-06 09:50:00,35.8,13.8,30.16,North,0,0.0,0.0,40,0.00,CLR,,0.00,429.0,WeatherDisplay:10.37,2013-04-06 13:50:00,
2013-04-06 09:55:00,36.1,14.1,30.16,North,0,0.0,0.0,40,0.00,FEW,,0.00,587.0,WeatherDisplay:10.37,2013-04-06 13:55:00,
2013-04-06 10:00:00,36.3,13.7,30.16,North,0,0.0,0.0,39,0.00,CLR,,0.00,598.0,WeatherDisplay:10.37,2013-04-06 14:00:00,
2013-04-06 10:05:00,36.7,14.6,30.16,North,0,0.0,0.0,40,0.00,CLR,,0.00,619.0,WeatherDisplay:10.37,2013-04-06 14:05:00,
2013-04-06 10:10:00,36.8,12.9,30.17,North,0,0.0,0.0,37,0.00,CLR,,0.00,631.0,WeatherDisplay:10.37,2013-04-06 14:10:00,
2013-04-06 10:15:00,36.9,13.6,30.17,North,0,0.0,0.0,38,0.00,CLR,,0.00,643.0,WeatherDisplay:10.37,2013-04-06 14:15:00,
2013-04-06 10:20:00,37.7,14.3,30.18,North,0,0.0,0.0,38,0.00,CLR,,0.00,657.0,WeatherDisplay:10.37,2013-04-06 14:20:00,
2013-04-06 10:25:00,38.2,13.6,30.18,North,0,0.0,0.0,36,0.00,CLR,,0.00,668.0,WeatherDisplay:10.37,2013-04-06 14:25:00,
2013-04-06 10:30:00,38.5,13.2,30.18,North,0,0.0,0.0,35,0.00,CLR,,0.00,682.0,WeatherDisplay:10.37,2013-04-06 14:30:00,
2013-04-06 10:35:00,38.9,14.2,30.18,North,0,0.0,0.0,36,0.00,CLR,,0.00,693.0,WeatherDisplay:10.37,2013-04-06 14:35:00,
2013-04-06 10:40:00,39.2,13.1,30.18,North,0,0.0,0.0,34,0.00,CLR,,0.00,705.0,WeatherDisplay:10.37,2013-04-06 14:40:00,
2013-04-06 10:45:00,39.3,12.6,30.18,North,0,0.0,0.0,33,0.00,CLR,,0.00,712.0,WeatherDisplay:10.37,2013-04-06 14:45:00,
2013-04-06 10:50:00,39.3,12.6,30.18,North,0,0.0,0.0,33,0.00,CLR,,0.00,724.0,WeatherDisplay:10.37,2013-04-06 14:50:00,
2013-04-06 10:55:00,39.5,14.1,30.18,North,0,0.0,0.0,35,0.00,CLR,,0.00,737.0,WeatherDisplay:10.37,2013-04-06 14:55:00,
2013-04-06 11:00:00,39.5,12.7,30.18,North,0,0.0,0.0,33,0.00,CLR,,0.00,744.0,WeatherDisplay:10.37,2013-04-06 15:00:00,
2013-04-06 11:05:00,40.0,13.2,30.18,North,0,0.0,0.0,33,0.00,CLR,,0.00,752.0,WeatherDisplay:10.37,2013-04-06 15:05:00,
2013-04-06 11:10:00,41.0,14.7,30.18,North,0,0.0,0.0,34,0.00,CLR,,0.00,761.0,WeatherDisplay:10.37,2013-04-06 15:10:00,
2013-04-06 11:16:00,41.6,13.2,30.19,North,0,0.0,0.0,31,0.00,CLR,,0.00,770.0,WeatherDisplay:10.37,2013-04-06 15:16:00,
2013-04-06 11:21:00,41.0,12.6,30.18,North,0,0.0,0.0,31,0.00,CLR,,0.00,779.0,WeatherDisplay:10.37,2013-04-06 15:21:00,
2013-04-06 11:26:00,40.6,13.0,30.19,North,0,0.0,0.0,32,0.00,CLR,,0.00,786.0,WeatherDisplay:10.37,2013-04-06 15:26:00,
2013-04-06 11:31:00,40.9,12.5,30.18,North,0,0.0,0.0,31,0.00,CLR,,0.00,793.0,WeatherDisplay:10.37,2013-04-06 15:31:00,
2013-04-06 11:36:00,40.9,11.0,30.19,North,0,0.0,0.0,29,0.00,CLR,,0.00,802.0,WeatherDisplay:10.37,2013-04-06 15:36:00,
2013-04-06 11:41:00,40.5,11.4,30.19,North,0,0.0,0.0,30,0.00,CLR,,0.00,809.0,WeatherDisplay:10.37,2013-04-06 15:41:00,
2013-04-06 11:46:00,40.5,10.7,30.19,North,0,0.0,0.0,29,0.00,CLR,,0.00,816.0,WeatherDisplay:10.37,2013-04-06 15:46:00,
2013-04-06 11:51:00,40.4,12.1,30.19,North,0,0.0,0.0,31,0.00,CLR,,0.00,821.0,WeatherDisplay:10.37,2013-04-06 15:51:00,
2013-04-06 11:57:00,41.1,14.1,30.19,North,0,0.0,0.0,33,0.00,CLR,,0.00,828.0,WeatherDisplay:10.37,2013-04-06 15:57:00,
2013-04-06 12:02:00,41.5,11.6,30.19,North,0,0.0,0.0,29,0.00,CLR,,0.00,831.0,WeatherDisplay:10.37,2013-04-06 16:02:00,
2013-04-06 12:07:00,41.3,11.4,30.19,North,0,0.0,0.0,29,0.00,CLR,,0.00,837.0,WeatherDisplay:10.37,2013-04-06 16:07:00,
2013-04-06 12:12:00,41.3,10.6,30.19,North,0,0.0,0.0,28,0.00,CLR,,0.00,840.0,WeatherDisplay:10.37,2013-04-06 16:12:00,
2013-04-06 12:17:00,41.6,10.9,30.18,North,0,0.0,0.0,28,0.00,CLR,,0.00,846.0,WeatherDisplay:10.37,2013-04-06 16:17:00,
2013-04-06 12:22:00,41.6,10.9,30.18,North,0,0.0,0.0,28,0.00,CLR,,0.00,847.0,WeatherDisplay:10.37,2013-04-06 16:22:00,
2013-04-06 12:27:00,41.9,12.7,30.19,North,0,0.0,0.0,30,0.00,CLR,,0.00,851.0,WeatherDisplay:10.37,2013-04-06 16:27:00,
2013-04-06 12:32:00,41.8,10.2,30.19,North,0,0.0,0.0,27,0.00,CLR,,0.00,853.0,WeatherDisplay:10.37,2013-04-06 16:32:00,
2013-04-06 12:37:00,42.5,11.6,30.19,North,0,0.0,0.0,28,0.00,CLR,,0.00,858.0,WeatherDisplay:10.37,2013-04-06 16:37:00,
2013-04-06 12:42:00,43.7,13.5,30.19,North,0,0.0,0.0,29,0.00,CLR,,0.00,858.0,WeatherDisplay:10.37,2013-04-06 16:42:00,
2013-04-06 12:47:00,43.3,10.7,30.19,North,0,0.0,0.0,26,0.00,CLR,,0.00,856.0,WeatherDisplay:10.37,2013-04-06 16:47:00,
2013-04-06 12:52:00,43.0,11.2,30.19,North,0,0.0,0.0,27,0.00,CLR,,0.00,858.0,WeatherDisplay:10.37,2013-04-06 16:52:00,
2013-04-06 12:57:00,43.2,11.4,30.19,North,0,0.0,0.0,27,0.00,CLR,,0.00,856.0,WeatherDisplay:10.37,2013-04-06 16:57:00,
2013-04-06 13:02:00,43.0,10.4,30.19,North,0,0.0,0.0,26,0.00,CLR,,0.00,854.0,WeatherDisplay:10.37,2013-04-06 17:02:00,
2013-04-06 13:07:00,42.6,9.2,30.19,North,0,0.0,0.0,25,0.00,CLR,,0.00,858.0,WeatherDisplay:10.37,2013-04-06 17:07:00,
2013-04-06 13:12:00,43.0,10.4,30.19,North,0,0.0,0.0,26,0.00,CLR,,0.00,854.0,WeatherDisplay:10.37,2013-04-06 17:12:00,
2013-04-06 13:17:00,43.1,10.5,30.19,North,0,0.0,0.0,26,0.00,CLR,,0.00,854.0,WeatherDisplay:10.37,2013-04-06 17:17:00,
2013-04-06 13:22:00,42.9,9.4,30.19,North,0,0.0,0.0,25,0.00,CLR,,0.00,851.0,WeatherDisplay:10.37,2013-04-06 17:22:00,
2013-04-06 13:27:00,43.4,9.9,30.19,North,0,0.0,0.0,25,0.00,CLR,,0.00,849.0,WeatherDisplay:10.37,2013-04-06 17:27:00,
2013-04-06 13:32:00,43.6,10.0,30.19,North,0,0.0,0.0,25,0.00,CLR,,0.00,847.0,WeatherDisplay:10.37,2013-04-06 17:32:00,
2013-04-06 13:37:00,44.1,9.5,30.19,North,0,0.0,0.0,24,0.00,CLR,,0.00,842.0,WeatherDisplay:10.37,2013-04-06 17:37:00,
2013-04-06 13:42:00,44.5,10.8,30.19,North,0,0.0,0.0,25,0.00,CLR,,0.00,840.0,WeatherDisplay:10.37,2013-04-06 17:42:00,
2013-04-06 13:47:00,44.5,11.7,30.19,North,0,0.0,0.0,26,0.00,CLR,,0.00,837.0,WeatherDisplay:10.37,2013-04-06 17:47:00,
2013-04-06 13:52:00,44.7,10.1,30.19,North,0,0.0,0.0,24,0.00,CLR,,0.00,830.0,WeatherDisplay:10.37,2013-04-06 17:52:00,
2013-04-06 13:57:00,44.2,10.5,30.19,North,0,0.0,0.0,25,0.00,CLR,,0.00,823.0,WeatherDisplay:10.37,2013-04-06 17:57:00,
2013-04-06 14:03:00,44.9,13.7,30.19,North,0,0.0,0.0,28,0.00,CLR,,0.00,819.0,WeatherDisplay:10.37,2013-04-06 18:03:00,
2013-04-06 14:08:00,45.6,14.3,30.19,North,0,0.0,0.0,28,0.00,CLR,,0.00,810.0,WeatherDisplay:10.37,2013-04-06 18:08:00,
2013-04-06 14:13:00,45.1,12.2,30.19,North,0,0.0,0.0,26,0.00,CLR,,0.00,807.0,WeatherDisplay:10.37,2013-04-06 18:13:00,
2013-04-06 14:18:00,44.7,9.1,30.19,North,0,0.0,0.0,23,0.00,CLR,,0.00,800.0,WeatherDisplay:10.37,2013-04-06 18:18:00,
2013-04-06 14:23:00,44.1,9.5,30.19,North,0,0.0,0.0,24,0.00,CLR,,0.00,795.0,WeatherDisplay:10.37,2013-04-06 18:23:00,
2013-04-06 14:28:00,44.2,11.4,30.18,North,0,0.0,0.0,26,0.00,CLR,,0.00,786.0,WeatherDisplay:10.37,2013-04-06 18:28:00,
2013-04-06 14:33:00,45.0,10.3,30.18,North,0,0.0,0.0,24,0.00,CLR,,0.00,777.0,WeatherDisplay:10.37,2013-04-06 18:33:00,
2013-04-06 14:38:00,45.2,10.5,30.18,North,0,0.0,0.0,24,0.00,CLR,,0.00,772.0,WeatherDisplay:10.37,2013-04-06 18:38:00,
2013-04-06 14:43:00,45.1,10.4,30.18,North,0,0.0,0.0,24,0.00,CLR,,0.00,763.0,WeatherDisplay:10.37,2013-04-06 18:43:00,
2013-04-06 14:48:00,45.4,11.6,30.19,North,0,0.0,0.0,25,0.00,CLR,,0.00,756.0,WeatherDisplay:10.37,2013-04-06 18:48:00,
2013-04-06 14:53:00,46.1,9.3,30.19,North,0,0.0,0.0,22,0.00,CLR,,0.00,744.0,WeatherDisplay:10.37,2013-04-06 18:53:00,
2013-04-06 14:58:00,45.5,10.7,30.19,North,0,0.0,0.0,24,0.00,CLR,,0.00,735.0,WeatherDisplay:10.37,2013-04-06 18:58:00,
2013-04-06 15:03:00,45.4,9.7,30.18,North,0,0.0,0.0,23,0.00,CLR,,0.00,726.0,WeatherDisplay:10.37,2013-04-06 19:03:00,
2013-04-06 15:08:00,45.6,9.9,30.18,North,0,0.0,0.0,23,0.00,CLR,,0.00,714.0,WeatherDisplay:10.37,2013-04-06 19:08:00,
2013-04-06 15:13:00,46.5,10.6,30.18,North,0,0.0,0.0,23,0.00,CLR,,0.00,707.0,WeatherDisplay:10.37,2013-04-06 19:13:00,
2013-04-06 15:18:00,46.1,10.3,30.18,North,0,0.0,0.0,23,0.00,CLR,,0.00,698.0,WeatherDisplay:10.37,2013-04-06 19:18:00,
2013-04-06 15:23:00,46.1,12.2,30.18,North,0,0.0,0.0,25,0.00,CLR,,0.00,686.0,WeatherDisplay:10.37,2013-04-06 19:23:00,
2013-04-06 15:28:00,46.3,10.5,30.19,North,0,0.0,0.0,23,0.00,CLR,,0.00,671.0,WeatherDisplay:10.37,2013-04-06 19:28:00,
2013-04-06 15:33:00,45.4,9.7,30.18,North,0,0.0,0.0,23,0.00,CLR,,0.00,663.0,WeatherDisplay:10.37,2013-04-06 19:33:00,
2013-04-06 15:38:00,46.0,10.2,30.18,North,0,0.0,0.0,23,0.00,CLR,,0.00,647.0,WeatherDisplay:10.37,2013-04-06 19:38:00,
2013-04-06 15:43:00,45.9,11.1,30.19,North,0,0.0,0.0,24,0.00,CLR,,0.00,629.0,WeatherDisplay:10.37,2013-04-06 19:43:00,
2013-04-06 15:48:00,45.5,7.8,30.19,North,0,0.0,0.0,21,0.00,CLR,,0.00,615.0,WeatherDisplay:10.37,2013-04-06 19:48:00,
2013-04-06 15:53:00,45.6,8.9,30.18,North,0,0.0,0.0,22,0.00,CLR,,0.00,492.0,WeatherDisplay:10.37,2013-04-06 19:53:00,
2013-04-06 15:58:00,45.7,9.0,30.18,North,0,0.0,0.0,22,0.00,SCT,,0.00,213.0,WeatherDisplay:10.37,2013-04-06 19:58:00,
2013-04-06 16:03:00,45.7,9.0,30.18,North,0,0.0,0.0,22,0.00,BKN,,0.00,211.0,WeatherDisplay:10.37,2013-04-06 20:03:00,
2013-04-06 16:08:00,46.0,9.2,30.18,North,0,0.0,0.0,22,0.00,BKN,,0.00,214.0,WeatherDisplay:10.37,2013-04-06 20:08:00,
2013-04-06 16:13:00,45.7,9.0,30.18,North,0,0.0,0.0,22,0.00,BKN,,0.00,218.0,WeatherDisplay:10.37,2013-04-06 20:13:00,
2013-04-06 16:18:00,45.7,10.0,30.18,North,0,0.0,0.0,23,0.00,SCT,,0.00,436.0,WeatherDisplay:10.37,2013-04-06 20:18:00,
2013-04-06 16:23:00,45.8,10.0,30.18,North,0,0.0,0.0,23,0.00,FEW,,0.00,369.0,WeatherDisplay:10.37,2013-04-06 20:23:00,
2013-04-06 16:28:00,45.9,10.1,30.19,North,0,0.0,0.0,23,0.00,SCT,,0.00,274.0,WeatherDisplay:10.37,2013-04-06 20:28:00,
2013-04-06 16:33:00,45.6,9.9,30.19,North,0,0.0,0.0,23,0.00,BKN,,0.00,169.0,WeatherDisplay:10.37,2013-04-06 20:33:00,
2013-04-06 16:38:00,45.5,8.8,30.19,North,0,0.0,0.0,22,0.00,BKN,,0.00,209.0,WeatherDisplay:10.37,2013-04-06 20:38:00,
2013-04-06 16:43:00,45.5,9.8,30.18,North,0,0.0,0.0,23,0.00,SCT,,0.00,241.0,WeatherDisplay:10.37,2013-04-06 20:43:00,
2013-04-06 16:48:00,45.6,8.9,30.19,North,0,0.0,0.0,22,0.00,SCT,,0.00,248.0,WeatherDisplay:10.37,2013-04-06 20:48:00,
2013-04-06 16:53:00,45.7,10.0,30.19,North,0,0.0,0.0,23,0.00,FEW,,0.00,283.0,WeatherDisplay:10.37,2013-04-06 20:53:00,
2013-04-06 16:58:00,45.6,8.9,30.19,North,0,0.0,0.0,22,0.00,SCT,,0.00,199.0,WeatherDisplay:10.37,2013-04-06 20:58:00,
2013-04-06 17:03:00,45.7,9.0,30.19,North,0,0.0,0.0,22,0.00,BKN,,0.00,151.0,WeatherDisplay:10.37,2013-04-06 21:03:00,
2013-04-06 17:08:00,45.5,8.8,30.20,North,0,0.0,0.0,22,0.00,SCT,,0.00,262.0,WeatherDisplay:10.37,2013-04-06 21:08:00,
2013-04-06 17:13:00,45.3,8.6,30.19,North,0,0.0,0.0,22,0.00,SCT,,0.00,206.0,WeatherDisplay:10.37,2013-04-06 21:13:00,
2013-04-06 17:18:00,45.4,10.7,30.19,North,0,0.0,0.0,24,0.00,BKN,,0.00,174.0,WeatherDisplay:10.37,2013-04-06 21:18:00,
2013-04-06 17:23:00,45.4,9.7,30.20,North,0,0.0,0.0,23,0.00,BKN,,0.00,97.0,WeatherDisplay:10.37,2013-04-06 21:23:00,
2013-04-06 17:28:00,45.0,8.4,30.20,North,0,0.0,0.0,22,0.00,BKN,,0.00,53.0,WeatherDisplay:10.37,2013-04-06 21:28:00,
2013-04-06 17:33:00,45.0,8.4,30.21,North,0,0.0,0.0,22,0.00,BKN,,0.00,39.0,WeatherDisplay:10.37,2013-04-06 21:33:00,
2013-04-06 17:38:00,45.1,8.5,30.21,North,0,0.0,0.0,22,0.00,BKN,,0.00,39.0,WeatherDisplay:10.37,2013-04-06 21:38:00,
2013-04-06 17:43:00,45.0,8.4,30.21,North,0,0.0,0.0,22,0.00,BKN,,0.00,40.0,WeatherDisplay:10.37,2013-04-06 21:43:00,
2013-04-06 17:48:00,45.0,8.4,30.21,North,0,0.0,0.0,22,0.00,BKN,,0.00,37.0,WeatherDisplay:10.37,2013-04-06 21:48:00,
2013-04-06 17:53:00,44.9,8.3,30.21,North,0,0.0,0.0,22,0.00,BKN,,0.00,42.0,WeatherDisplay:10.37,2013-04-06 21:53:00,
2013-04-06 17:58:00,44.7,8.1,30.21,North,0,0.0,0.0,22,0.00,BKN,,0.00,32.0,WeatherDisplay:10.37,2013-04-06 21:58:00,
2013-04-06 18:03:00,44.7,10.1,30.22,North,0,0.0,0.0,24,0.00,BKN,,0.00,28.0,WeatherDisplay:10.37,2013-04-06 22:03:00,
2013-04-06 18:08:00,44.6,9.0,30.21,North,0,0.0,0.0,23,0.00,BKN,,0.00,26.0,WeatherDisplay:10.37,2013-04-06 22:08:00,
2013-04-06 18:13:00,44.4,8.9,30.22,North,0,0.0,0.0,23,0.00,BKN,,0.00,28.0,WeatherDisplay:10.37,2013-04-06 22:13:00,
2013-04-06 18:18:00,44.3,8.8,30.22,North,0,0.0,0.0,23,0.00,BKN,,0.00,25.0,WeatherDisplay:10.37,2013-04-06 22:18:00,
2013-04-06 18:23:00,44.1,9.5,30.23,North,0,0.0,0.0,24,0.00,BKN,,0.00,26.0,WeatherDisplay:10.37,2013-04-06 22:23:00,
2013-04-06 18:29:00,44.0,9.5,30.23,North,0,0.0,0.0,24,0.00,BKN,,0.00,19.0,WeatherDisplay:10.37,2013-04-06 22:29:00,
2013-04-06 18:34:00,44.0,10.4,30.23,North,0,0.0,0.0,25,0.00,BKN,,0.00,18.0,WeatherDisplay:10.37,2013-04-06 22:34:00,
2013-04-06 18:39:00,43.9,11.2,30.23,North,0,0.0,0.0,26,0.00,BKN,,0.00,16.0,WeatherDisplay:10.37,2013-04-06 22:39:00,
2013-04-06 18:44:00,43.7,11.8,30.24,North,0,0.0,0.0,27,0.00,BKN,,0.00,14.0,WeatherDisplay:10.37,2013-04-06 22:44:00,
2013-04-06 18:49:00,43.5,9.0,30.24,North,0,0.0,0.0,24,0.00,BKN,,0.00,12.0,WeatherDisplay:10.37,2013-04-06 22:49:00,
2013-04-06 18:54:00,43.4,11.6,30.24,North,0,0.0,0.0,27,0.00,BKN,,0.00,11.0,WeatherDisplay:10.37,2013-04-06 22:54:00,
2013-04-06 19:00:00,43.2,11.4,30.24,North,0,0.0,0.0,27,0.00,BKN,,0.00,9.0,WeatherDisplay:10.37,2013-04-06 23:00:00,
2013-04-06 19:05:00,43.1,12.2,30.24,North,0,0.0,0.0,28,0.00,BKN,,0.00,7.0,WeatherDisplay:10.37,2013-04-06 23:05:00,
2013-04-06 19:10:00,42.9,12.8,30.24,North,0,0.0,0.0,29,0.00,BKN,,0.00,5.0,WeatherDisplay:10.37,2013-04-06 23:10:00,
2013-04-06 19:15:00,42.7,12.6,30.25,North,0,0.0,0.0,29,0.00,OVC,,0.00,0.0,WeatherDisplay:10.37,2013-04-06 23:15:00,
2013-04-06 19:20:00,42.4,13.9,30.25,North,0,0.0,0.0,31,0.00,OVC,,0.00,0.0,WeatherDisplay:10.37,2013-04-06 23:20:00,
2013-04-06 19:25:00,42.2,14.4,30.25,North,0,0.0,0.0,32,0.00,OVC,,0.00,0.0,WeatherDisplay:10.37,2013-04-06 23:25:00,
2013-04-06 19:30:00,42.0,14.2,30.25,North,0,0.0,0.0,32,0.00,OVC,,0.00,0.0,WeatherDisplay:10.37,2013-04-06 23:30:00,
2013-04-06 19:35:00,41.6,13.2,30.26,North,0,0.0,0.0,31,0.00,OVC,,0.00,0.0,WeatherDisplay:10.37,2013-04-06 23:35:00,
2013-04-06 19:40:00,41.1,13.4,30.26,North,0,0.0,0.0,32,0.00,OVC,,0.00,0.0,WeatherDisplay:10.37,2013-04-06 23:40:00,
2013-04-06 19:45:00,40.8,13.9,30.26,North,0,0.0,0.0,33,0.00,OVC,,0.00,0.0,WeatherDisplay:10.37,2013-04-06 23:45:00,
2013-04-06 19:50:00,40.4,13.5,30.26,North,0,0.0,0.0,33,0.00,CLR,,0.00,0.0,WeatherDisplay:10.37,2013-04-06 23:50:00,
2013-04-06 19:55:00,40.0,13.2,30.27,North,0,0.0,0.0,33,0.00,CLR,,0.00,0.0,WeatherDisplay:10.37,2013-04-06 23:55:00,
2013-04-06 20:00:00,39.7,13.6,30.27,North,0,0.0,0.0,34,0.00,CLR,,0.00,0.0,WeatherDisplay:10.37,2013-04-07 00:00:00,
2013-04-06 20:06:00,39.4,13.3,30.27,North,0,0.0,0.0,34,0.00,CLR,,0.00,0.0,WeatherDisplay:10.37,2013-04-07 00:06:00,
2013-04-06 20:11:00,39.1,13.7,30.27,North,0,0.0,0.0,35,0.00,CLR,,0.00,0.0,WeatherDisplay:10.37,2013-04-07 00:11:00,
2013-04-06 20:17:00,38.7,14.0,30.27,North,0,0.0,0.0,36,0.00,CLR,,0.00,0.0,WeatherDisplay:10.37,2013-04-07 00:17:00,
2013-04-06 20:22:00,38.3,14.9,30.27,North,0,0.0,0.0,38,0.00,CLR,,0.00,0.0,WeatherDisplay:10.37,2013-04-07 00:22:00,
2013-04-06 20:27:00,38.0,14.6,30.28,North,0,0.0,0.0,38,0.00,CLR,,0.00,0.0,WeatherDisplay:10.37,2013-04-07 00:27:00,
2013-04-06 20:32:00,37.7,14.3,30.28,North,0,0.0,0.0,38,0.00,CLR,,0.00,0.0,WeatherDisplay:10.37,2013-04-07 00:32:00,
2013-04-06 20:37:00,37.4,15.2,30.27,North,0,0.0,0.0,40,0.00,CLR,,0.00,0.0,WeatherDisplay:10.37,2013-04-07 00:37:00,
2013-04-06 20:42:00,37.0,14.9,30.28,North,0,0.0,0.0,40,0.00,CLR,,0.00,0.0,WeatherDisplay:10.37,2013-04-07 00:42:00,
2013-04-06 20:47:00,36.7,14.6,30.28,North,0,0.0,0.0,40,0.00,CLR,,0.00,0.0,WeatherDisplay:10.37,2013-04-07 00:47:00,
2013-04-06 20:52:00,36.4,15.5,30.28,North,0,0.0,0.0,42,0.00,CLR,,0.00,0.0,WeatherDisplay:10.37,2013-04-07 00:52:00,
2013-04-06 20:57:00,36.1,14.6,30.28,North,0,0.0,0.0,41,0.00,CLR,,0.00,0.0,WeatherDisplay:10.37,2013-04-07 00:57:00,
2013-04-06 21:02:00,35.8,15.5,30.28,North,0,0.0,0.0,43,0.00,CLR,,0.00,0.0,WeatherDisplay:10.37,2013-04-07 01:02:00,
2013-04-06 21:07:00,35.5,14.6,30.29,North,0,0.0,0.0,42,0.00,CLR,,0.00,0.0,WeatherDisplay:10.37,2013-04-07 01:07:00,
2013-04-06 21:12:00,35.2,14.9,30.29,North,0,0.0,0.0,43,0.00,CLR,,0.00,0.0,WeatherDisplay:10.37,2013-04-07 01:12:00,
2013-04-06 21:17:00,34.9,15.2,30.28,North,0,0.0,0.0,44,0.00,CLR,,0.00,0.0,WeatherDisplay:10.37,2013-04-07 01:17:00,
2013-04-06 21:23:00,34.7,14.5,30.28,North,0,0.0,0.0,43,0.00,CLR,,0.00,0.0,WeatherDisplay:10.37,2013-04-07 01:23:00,
2013-04-06 21:28:00,34.5,14.8,30.28,North,0,0.0,0.0,44,0.00,CLR,,0.00,0.0,WeatherDisplay:10.37,2013-04-07 01:28:00,
2013-04-06 21:33:00,34.2,14.5,30.29,North,0,0.0,0.0,44,0.00,CLR,,0.00,0.0,WeatherDisplay:10.37,2013-04-07 01:33:00,
2013-04-06 21:38:00,34.1,13.9,30.29,North,0,0.0,0.0,43,0.00,CLR,,0.00,0.0,WeatherDisplay:10.37,2013-04-07 01:38:00,
2013-04-06 21:43:00,33.8,14.2,30.28,North,0,0.0,0.0,44,0.00,CLR,,0.00,0.0,WeatherDisplay:10.37,2013-04-07 01:43:00,
2013-04-06 21:48:00,33.6,13.5,30.29,North,0,0.0,0.0,43,0.00,CLR,,0.00,0.0,WeatherDisplay:10.37,2013-04-07 01:48:00,
2013-04-06 21:53:00,33.3,14.7,30.29,North,0,0.0,0.0,46,0.00,CLR,,0.00,0.0,WeatherDisplay:10.37,2013-04-07 01:53:00,
2013-04-06 21:58:00,33.2,14.1,30.29,North,0,0.0,0.0,45,0.00,CLR,,0.00,0.0,WeatherDisplay:10.37,2013-04-07 01:58:00,
2013-04-06 22:03:00,33.0,15.9,30.29,North,0,0.0,0.0,49,0.00,CLR,,0.00,0.0,WeatherDisplay:10.37,2013-04-07 02:03:00,
2013-04-06 22:08:00,32.9,15.8,30.29,North,0,0.0,0.0,49,0.00,CLR,,0.00,0.0,WeatherDisplay:10.37,2013-04-07 02:08:00,
2013-04-06 22:13:00,32.7,15.1,30.29,North,0,0.0,0.0,48,0.00,CLR,,0.00,0.0,WeatherDisplay:10.37,2013-04-07 02:13:00,
2013-04-06 22:18:00,32.5,14.5,30.29,North,0,0.0,0.0,47,0.00,CLR,,0.00,0.0,WeatherDisplay:10.37,2013-04-07 02:18:00,
2013-04-06 22:23:00,32.3,13.8,30.30,North,0,0.0,0.0,46,0.00,CLR,,0.00,0.0,WeatherDisplay:10.37,2013-04-07 02:23:00,
2013-04-06 22:28:00,32.0,13.0,30.30,North,0,0.0,0.0,45,0.00,CLR,,0.00,0.0,WeatherDisplay:10.37,2013-04-07 02:28:00,
2013-04-06 22:33:00,31.9,13.4,30.30,North,0,0.0,0.0,46,0.00,CLR,,0.00,0.0,WeatherDisplay:10.37,2013-04-07 02:33:00,
2013-04-06 22:38:00,31.8,12.3,30.30,North,0,0.0,0.0,44,0.00,CLR,,0.00,0.0,WeatherDisplay:10.37,2013-04-07 02:38:00,
2013-04-06 22:43:00,31.7,13.7,30.30,North,0,0.0,0.0,47,0.00,CLR,,0.00,0.0,WeatherDisplay:10.37,2013-04-07 02:43:00,
2013-04-06 22:49:00,31.6,14.6,30.29,North,0,0.0,0.0,49,0.00,CLR,,0.00,0.0,WeatherDisplay:10.37,2013-04-07 02:49:00,
2013-04-06 22:54:00,31.5,14.5,30.29,North,0,0.0,0.0,49,0.00,CLR,,0.00,0.0,WeatherDisplay:10.37,2013-04-07 02:54:00,
2013-04-06 22:59:00,31.5,16.7,30.29,North,0,0.0,0.0,54,0.00,CLR,,0.00,0.0,WeatherDisplay:10.37,2013-04-07 02:59:00,
2013-04-06 23:04:00,31.3,16.1,30.29,North,0,0.0,0.0,53,0.00,CLR,,0.00,0.0,WeatherDisplay:10.37,2013-04-07 03:04:00,
2013-04-06 23:09:00,31.2,16.5,30.30,North,0,0.0,0.0,54,0.00,CLR,,0.00,0.0,WeatherDisplay:10.37,2013-04-07 03:09:00,
2013-04-06 23:14:00,31.1,17.6,30.30,North,0,0.0,0.0,57,0.00,CLR,,0.00,0.0,WeatherDisplay:10.37,2013-04-07 03:14:00,
2013-04-06 23:20:00,30.9,17.0,30.30,North,0,0.0,0.0,56,0.00,CLR,,0.00,0.0,WeatherDisplay:10.37,2013-04-07 03:20:00,
2013-04-06 23:25:00,30.6,15.5,30.30,North,0,0.0,0.0,53,0.00,CLR,,0.00,0.0,WeatherDisplay:10.37,2013-04-07 03:25:00,
2013-04-06 23:30:00,30.5,14.9,30.30,North,0,0.0,0.0,52,0.00,CLR,,0.00,0.0,WeatherDisplay:10.37,2013-04-07 03:30:00,
2013-04-06 23:35:00,30.5,15.4,30.30,North,0,0.0,0.0,53,0.00,CLR,,0.00,0.0,WeatherDisplay:10.37,2013-04-07 03:35:00,
2013-04-06 23:40:00,30.5,16.2,30.30,North,0,0.0,0.0,55,0.00,CLR,,0.00,0.0,WeatherDisplay:10.37,2013-04-07 03:40:00,
2013-04-06 23:45:00,30.4,16.1,30.30,North,0,0.0,0.0,55,0.00,CLR,,0.00,0.0,WeatherDisplay:10.37,2013-04-07 03:45:00,
2013-04-06 23:50:00,30.4,15.7,30.30,North,0,0.0,0.0,54,0.00,CLR,,0.00,0.0,WeatherDisplay:10.37,2013-04-07 03:50:00,
2013-04-06 23:55:00,30.4,15.7,30.30,North,0,0.0,0.0,54,0.00,CLR,,0.00,0.0,WeatherDisplay:10.37,2013-04-07 03:55:00,